KP4DJT-1 Weather Reports


Display with metric or nautical units.
time (UTC)temp
F
wind
direction
speed
MPH
gust
MPH
rain 1hr
in
rain 24hr
in
rain mn
in
humidity
%
barometer
mb
20260906203039 99 167 3.0 8.0 0.00 0.00 0.00 35 1012.2
20260906202519 99 160 5.0 9.0 0.00 0.00 0.00 35 1012.2
20260906202039 99 156 3.0 7.0 0.00 0.00 0.00 35 1012.2
20260906201516 99 116 4.0 7.0 0.00 0.00 0.00 34 1012.3
20260906201039 100 133 6.0 10.0 0.00 0.00 0.00 35 1012.4
20260906200519 100 126 3.0 8.0 0.00 0.00 0.00 35 1012.4
20260906200019 100 190 6.0 9.0 0.00 0.00 0.00 34 1012.6
20260906195519 100 181 5.0 9.0 0.00 0.00 0.00 34 1012.7
20260906195019 100 189 4.0 9.0 0.00 0.00 0.00 33 1012.7
20260906194519 99 162 6.0 11.0 0.00 0.00 0.00 34 1012.7
20260906194019 99 56 3.0 7.0 0.00 0.00 0.00 36 1012.8
20260906193600 99 106 3.0 8.0 0.00 0.00 0.00 36 1012.9
20260906193019 99 97 4.0 10.0 0.00 0.00 0.00 35 1012.9
20260906192516 100 124 5.0 9.0 0.00 0.00 0.00 35 1013.0
20260906192016 99 138 5.0 9.0 0.00 0.00 0.00 35 1013.0
20260906191516 99 159 3.0 7.0 0.00 0.00 0.00 35 1013.1
20260906191020 98 164 3.0 7.0 0.00 0.00 0.00 36 1013.1
20260906190520 98 123 3.0 8.0 0.00 0.00 0.00 37 1013.2
20260906190020 97 105 4.0 7.0 0.00 0.00 0.00 38 1013.3
20260906185520 97 84 3.0 6.0 0.00 0.00 0.00 38 1013.4
20260906185020 97 95 5.0 9.0 0.00 0.00 0.00 38 1013.4
20260906184520 96 97 4.0 7.0 0.00 0.00 0.00 38 1013.5
20260906184017 96 74 3.0 10.0 0.00 0.00 0.00 39 1013.6
20260906183537 96 41 2.0 6.0 0.00 0.00 0.00 40 1013.7
20260906183017 96 44 4.0 6.0 0.00 0.00 0.00 40 1013.7
20260906182538 97 65 3.0 7.0 0.00 0.00 0.00 40 1013.8
20260906182018 97 98 5.0 9.0 0.00 0.00 0.00 39 1013.9
20260906181518 97 80 7.0 10.0 0.00 0.00 0.00 38 1013.8
20260906181020 97 161 3.0 8.0 0.00 0.00 0.00 39 1013.9
20260906180540 97 147 5.0 12.0 0.00 0.00 0.00 39 1014.1
20260906180021 97 144 3.0 6.0 0.00 0.00 0.00 40 1014.1
20260906175518 96 73 2.0 5.0 0.00 0.00 0.00 40 1014.2
20260906175018 96 48 4.0 8.0 0.00 0.00 0.00 41 1014.3
20260906174538 96 76 4.0 8.0 0.00 0.00 0.00 41 1014.4
20260906174018 96 145 4.0 7.0 0.00 0.00 0.00 41 1014.6
20260906173518 95 169 3.0 12.0 0.00 0.00 0.00 41 1014.6
20260906173018 95 164 3.0 7.0 0.00 0.00 0.00 42 1014.7
20260906172518 95 173 5.0 10.0 0.00 0.00 0.00 42 1014.8
20260906172018 95 156 2.0 5.0 0.00 0.00 0.00 42 1014.9
20260906171518 95 193 5.0 9.0 0.00 0.00 0.00 41 1015.0
20260906170950 95 0.0 0.0 0.00 0.00 0.00 41 1015.0
20260906170018 94 201 3.0 7.0 0.00 0.04 0.00 43 1015.2
20260906165538 95 218 6.0 8.0 0.00 0.04 0.00 43 1015.2
20260906164519 94 148 2.0 5.0 0.00 0.04 0.00 43 1015.4
20260906164039 94 36 2.0 4.0 0.00 0.04 0.00 43 1015.4
20260906163019 94 271 2.0 5.0 0.00 0.04 0.00 43 1015.4
20260906162519 94 280 2.0 5.0 0.00 0.04 0.00 43 1015.3
20260906162039 94 241 3.0 7.0 0.00 0.04 0.00 43 1015.3
20260906161519 93 162 2.0 6.0 0.00 0.04 0.00 44 1015.3
20260906161019 93 188 3.0 7.0 0.00 0.04 0.00 44 1015.3
20260906160519 93 130 2.0 5.0 0.00 0.04 0.00 44 1015.3
20260906160019 93 240 1.0 4.0 0.00 0.04 0.00 46 1015.3
20260906155519 93 155 3.0 6.0 0.00 0.04 0.00 45 1015.2
20260906155019 93 208 3.0 6.0 0.00 0.04 0.00 45 1015.2
20260906154519 92 239 3.0 6.0 0.00 0.04 0.00 46 1015.2
20260906154016 91 165 2.0 6.0 0.00 0.04 0.00 47 1015.2
20260906153516 91 236 3.0 7.0 0.00 0.04 0.00 47 1015.1
20260906153020 91 242 4.0 7.0 0.00 0.04 0.00 47 1015.1
20260906152520 90 206 3.0 6.0 0.00 0.04 0.00 48 1015.1
20260906152020 90 214 3.0 5.0 0.00 0.04 0.00 49 1015.1
20260906151600 90 262 3.0 5.0 0.00 0.04 0.00 49 1015.1
20260906151040 90 236 3.0 6.0 0.00 0.04 0.00 49 1015.1
20260906150520 90 241 4.0 9.0 0.00 0.04 0.00 49 1015.1
20260906150017 89 242 3.0 5.0 0.00 0.04 0.00 50 1015.1
20260906145517 89 265 5.0 8.0 0.00 0.04 0.00 50 1015.1
20260906145017 89 252 5.0 7.0 0.00 0.04 0.00 51 1015.1
20260906144517 89 242 4.0 7.0 0.00 0.04 0.00 51 1015.1
20260906144017 89 256 4.0 7.0 0.00 0.04 0.00 51 1015.1
20260906143537 88 223 4.0 7.0 0.00 0.04 0.00 51 1015.0
20260906143020 88 231 4.0 6.0 0.00 0.04 0.00 51 1015.0
20260906142520 87 252 3.0 6.0 0.00 0.04 0.00 52 1015.0
20260906142021 87 220 3.0 4.0 0.00 0.04 0.00 53 1015.0
20260906141558 86 223 3.0 5.0 0.00 0.04 0.00 54 1015.0
20260906141018 86 231 3.0 6.0 0.00 0.04 0.00 54 1015.0
20260906140517 86 234 4.0 7.0 0.00 0.04 0.00 54 1014.9
20260906140017 85 236 3.0 5.0 0.00 0.04 0.00 54 1014.9
20260906135538 85 204 4.0 6.0 0.00 0.04 0.00 55 1014.9
20260906135018 84 215 3.0 5.0 0.00 0.04 0.00 56 1014.8
20260906134538 84 211 3.0 6.0 0.00 0.05 0.00 57 1014.8
20260906134018 83 214 4.0 6.0 0.00 0.05 0.00 58 1014.8
20260906133538 83 207 3.0 5.0 0.00 0.05 0.00 58 1014.7
20260906133018 82 201 3.0 5.0 0.00 0.05 0.00 59 1014.7
20260906132518 82 203 3.0 5.0 0.00 0.05 0.00 60 1014.7
20260906132018 81 200 3.0 4.0 0.00 0.05 0.00 60 1014.7
20260906131518 81 204 2.0 4.0 0.00 0.05 0.00 60 1014.6
20260906131038 81 195 1.0 3.0 0.00 0.05 0.00 61 1014.6
20260906130518 81 219 3.0 4.0 0.00 0.05 0.00 61 1014.6
20260906130018 81 200 2.0 4.0 0.00 0.05 0.00 61 1014.5
20260906125518 81 201 2.0 4.0 0.00 0.05 0.00 61 1014.5
20260906125018 81 198 2.0 4.0 0.00 0.05 0.00 61 1014.4
20260906124519 81 211 2.0 4.0 0.00 0.05 0.00 61 1014.4
20260906124019 80 207 2.0 4.0 0.00 0.05 0.00 61 1014.4
20260906123519 80 192 3.0 4.0 0.00 0.05 0.00 61 1014.3
20260906123019 80 195 2.0 4.0 0.00 0.05 0.00 61 1014.3
20260906122519 80 203 1.0 3.0 0.00 0.05 0.00 62 1014.2
20260906122019 80 187 2.0 3.0 0.00 0.05 0.00 62 1014.1
20260906121519 80 190 2.0 4.0 0.00 0.05 0.00 62 1014.1
20260906121019 80 192 2.0 4.0 0.00 0.05 0.00 62 1014.1
20260906120519 80 186 2.0 4.0 0.00 0.05 0.00 61 1014.1
20260906120016 80 214 3.0 4.0 0.00 0.05 0.00 61 1014.0
20260906115516 80 211 2.0 5.0 0.00 0.05 0.00 62 1014.0
20260906115019 80 202 3.0 5.0 0.00 0.05 0.00 61 1014.0
20260906114519 80 192 2.0 5.0 0.00 0.05 0.00 61 1013.9
20260906114019 80 189 1.0 3.0 0.00 0.05 0.00 61 1013.8
20260906113519 80 195 1.0 3.0 0.00 0.05 0.00 61 1013.7
20260906113020 80 184 2.0 4.0 0.00 0.05 0.00 61 1013.7
20260906112519 81 192 1.0 3.0 0.00 0.05 0.00 61 1013.7
20260906112020 81 198 3.0 4.0 0.00 0.05 0.00 61 1013.6
20260906111537 81 197 2.0 4.0 0.00 0.05 0.00 60 1013.6
20260906111017 81 193 2.0 4.0 0.00 0.05 0.00 60 1013.5
20260906110517 81 206 2.0 3.0 0.00 0.05 0.00 60 1013.5
20260906110017 81 191 2.0 3.0 0.00 0.05 0.00 60 1013.5
20260906105517 81 214 2.0 4.0 0.00 0.05 0.00 60 1013.5
20260906105040 81 66 1.0 3.0 0.00 0.05 0.00 60 1013.4
20260906104520 81 205 3.0 5.0 0.00 0.05 0.00 60 1013.4
20260906104021 81 203 2.0 4.0 0.00 0.05 0.00 60 1013.4
20260906103517 81 213 4.0 8.0 0.00 0.05 0.00 59 1013.3
20260906103017 81 201 2.0 3.0 0.00 0.05 0.00 59 1013.3
20260906102518 81 197 3.0 4.0 0.00 0.05 0.00 59 1013.3
20260906102018 81 200 2.0 5.0 0.00 0.05 0.00 59 1013.3
20260906101518 82 213 2.0 4.0 0.00 0.05 0.00 58 1013.2
20260906101017 82 206 3.0 4.0 0.00 0.05 0.00 58 1013.2
20260906100518 82 206 2.0 3.0 0.00 0.05 0.00 58 1013.2
20260906100021 82 215 2.0 4.0 0.00 0.05 0.00 58 1013.2
20260906095521 82 204 2.0 4.0 0.00 0.05 0.00 58 1013.2
20260906095018 82 206 3.0 5.0 0.00 0.05 0.00 57 1013.2
20260906094538 83 197 3.0 4.0 0.00 0.05 0.00 57 1013.2
20260906094018 83 210 2.0 5.0 0.00 0.05 0.00 56 1013.1
20260906093518 83 225 1.0 4.0 0.00 0.05 0.00 56 1013.1
20260906093018 83 241 1.0 3.0 0.00 0.05 0.00 56 1013.1
20260906092518 83 252 2.0 4.0 0.00 0.05 0.00 56 1013.1
20260906092018 83 219 1.0 3.0 0.00 0.05 0.00 56 1013.2
20260906091519 83 325 1.0 2.0 0.00 0.05 0.00 56 1013.2
20260906091019 83 339 1.0 3.0 0.00 0.05 0.00 55 1013.2
20260906090518 83 57 2.0 5.0 0.00 0.05 0.00 55 1013.2
20260906090018 83 246 1.0 3.0 0.00 0.05 0.00 55 1013.1
20260906085518 83 189 1.0 3.0 0.00 0.05 0.00 55 1013.1
20260906085019 83 210 3.0 8.0 0.00 0.05 0.00 55 1013.2
20260906084519 83 209 1.0 3.0 0.00 0.05 0.00 55 1013.1
20260906084019 83 228 2.0 3.0 0.00 0.05 0.00 55 1013.1
20260906083519 84 228 2.0 3.0 0.00 0.05 0.00 54 1013.0
20260906083019 84 206 3.0 4.0 0.00 0.05 0.00 54 1013.0
20260906082519 84 219 3.0 4.0 0.00 0.05 0.00 54 1012.9
20260906082039 84 242 3.0 5.0 0.00 0.05 0.00 54 1012.9
20260906081516 84 213 3.0 4.0 0.00 0.05 0.00 53 1012.9
20260906081016 85 204 3.0 4.0 0.00 0.05 0.00 53 1012.9
20260906080516 85 213 3.0 4.0 0.00 0.05 0.00 52 1012.9
20260906080019 85 210 2.0 4.0 0.00 0.05 0.00 52 1012.9
20260906075520 85 217 2.0 3.0 0.00 0.05 0.00 52 1012.9
20260906075019 85 241 2.0 4.0 0.00 0.05 0.00 51 1013.0
20260906074520 85 235 2.0 3.0 0.00 0.05 0.00 51 1012.9
20260906074040 85 213 2.0 3.0 0.00 0.05 0.00 51 1012.9
20260906073519 85 222 1.0 3.0 0.00 0.05 0.00 51 1013.0
20260906073020 85 245 0.0 2.0 0.00 0.05 0.00 51 1013.0
20260906072519 85 224 2.0 3.0 0.00 0.05 0.00 51 1013.0
20260906072017 86 217 2.0 3.0 0.00 0.05 0.00 51 1013.0
20260906071517 85 212 2.0 3.0 0.00 0.05 0.00 51 1013.0
20260906071017 86 229 1.0 3.0 0.00 0.05 0.00 51 1013.1
20260906070517 86 212 0.0 2.0 0.00 0.05 0.00 51 1013.1
20260906070020 86 239 1.0 3.0 0.00 0.05 0.00 50 1013.0
20260906065520 86 202 2.0 3.0 0.00 0.05 0.00 50 1013.0
20260906065020 86 215 1.0 3.0 0.00 0.05 0.00 50 1013.0
20260906064537 86 210 2.0 3.0 0.00 0.05 0.00 50 1012.9
20260906064017 86 207 2.0 3.0 0.00 0.05 0.00 49 1012.9
20260906063517 86 247 2.0 4.0 0.00 0.05 0.00 49 1013.0
20260906063018 86 259 2.0 3.0 0.00 0.05 0.00 49 1013.0
20260906062518 86 277 2.0 4.0 0.00 0.05 0.00 49 1013.0
20260906062038 86 251 2.0 6.0 0.00 0.05 0.00 50 1013.0
20260906061518 86 246 2.0 4.0 0.00 0.05 0.00 50 1013.0
20260906061021 86 293 2.0 5.0 0.00 0.05 0.00 50 1013.0
20260906060518 87 314 2.0 6.0 0.00 0.05 0.00 50 1013.0
20260906060018 87 314 3.0 7.0 0.00 0.05 0.00 49 1013.1
20260906055518 87 313 3.0 6.0 0.00 0.05 0.00 49 1013.1
20260906055038 87 315 3.0 10.0 0.00 0.05 0.00 49 1013.0
20260906054518 87 315 3.0 6.0 0.00 0.05 0.00 48 1013.0
20260906054038 87 315 3.0 8.0 0.00 0.05 0.00 48 1013.0
20260906053519 87 313 2.0 3.0 0.00 0.05 0.00 48 1012.9
20260906053018 88 293 2.0 7.0 0.00 0.05 0.00 48 1012.8
20260906052518 88 296 3.0 6.0 0.00 0.05 0.00 48 1012.8
20260906052019 88 313 2.0 3.0 0.00 0.05 0.00 47 1012.7
20260906051519 88 313 2.0 8.0 0.00 0.05 0.00 48 1012.7
20260906051019 88 319 2.0 4.0 0.00 0.05 0.00 48 1012.7
20260906050519 88 314 2.0 3.0 0.00 0.05 0.00 48 1012.7
20260906050019 88 314 2.0 3.0 0.00 0.05 0.00 48 1012.7
20260906045519 88 314 2.0 3.0 0.00 0.05 0.05 48 1012.7
20260906045039 88 312 2.0 4.0 0.00 0.05 0.05 47 1012.7
20260906044539 88 294 2.0 6.0 0.00 0.05 0.05 47 1012.7
20260906044019 88 300 2.0 3.0 0.00 0.05 0.05 47 1012.7
20260906043519 89 303 2.0 4.0 0.00 0.05 0.05 47 1012.7
20260906043019 89 297 2.0 4.0 0.00 0.05 0.05 46 1012.7
20260906042516 89 332 3.0 10.0 0.00 0.05 0.05 46 1012.7
20260906042019 89 306 2.0 3.0 0.00 0.05 0.05 46 1012.8
20260906041519 89 313 2.0 3.0 0.00 0.05 0.05 46 1012.8
20260906041019 89 313 2.0 4.0 0.00 0.05 0.05 46 1012.8
20260906040519 89 314 2.0 3.0 0.00 0.05 0.05 46 1012.8
20260906040019 89 314 2.0 4.0 0.00 0.05 0.05 46 1012.8
20260906035520 89 326 3.0 8.0 0.00 0.05 0.05 46 1012.9
20260906035020 89 294 2.0 4.0 0.00 0.05 0.05 46 1012.9
20260906034517 89 294 2.0 3.0 0.00 0.05 0.05 46 1012.8
20260906034037 89 272 2.0 4.0 0.00 0.05 0.05 46 1012.8
20260906033517 90 219 3.0 5.0 0.00 0.05 0.05 46 1012.7
20260906033017 90 229 3.0 4.0 0.00 0.05 0.05 45 1012.7
20260906032537 90 218 2.0 4.0 0.00 0.05 0.05 45 1012.7
20260906032040 90 199 3.0 5.0 0.00 0.05 0.05 45 1012.6
20260906031520 90 180 4.0 6.0 0.00 0.05 0.05 44 1012.7
20260906031020 91 185 3.0 5.0 0.00 0.05 0.05 44 1012.7
20260906030017 91 179 3.0 5.0 0.00 0.05 0.05 43 1012.7
20260906025517 92 182 3.0 6.0 0.00 0.05 0.05 43 1012.6
20260906025018 92 178 3.0 6.0 0.00 0.05 0.05 42 1012.5
20260906024517 92 192 2.0 5.0 0.00 0.05 0.05 42 1012.5
20260906024017 93 197 4.0 8.0 0.00 0.05 0.05 41 1012.5
20260906023538 93 164 4.0 6.0 0.00 0.05 0.05 41 1012.4
20260906023021 93 165 4.0 6.0 0.00 0.05 0.05 41 1012.4
20260906022518 93 163 4.0 6.0 0.00 0.05 0.05 41 1012.3
20260906022019 93 166 4.0 6.0 0.00 0.05 0.05 40 1012.2
20260906021518 94 165 4.0 6.0 0.00 0.05 0.05 40 1012.2
20260906021038 94 149 2.0 6.0 0.00 0.05 0.05 40 1012.1
20260906020518 94 160 3.0 5.0 0.00 0.05 0.05 40 1012.1
20260906020018 94 136 3.0 6.0 0.00 0.05 0.05 40 1012.1
20260906015518 94 154 4.0 6.0 0.00 0.05 0.05 39 1012.1
20260906015058 94 154 3.0 6.0 0.00 0.05 0.05 39 1012.0
20260906014518 94 149 2.0 4.0 0.00 0.05 0.05 39 1011.9
20260906014018 95 168 2.0 4.0 0.00 0.05 0.05 39 1011.9
20260906013519 95 159 3.0 5.0 0.00 0.05 0.05 39 1011.8
20260906013019 95 168 3.0 6.0 0.00 0.05 0.05 39 1011.7
20260906012538 95 160 3.0 6.0 0.00 0.05 0.05 38 1011.7
20260906012019 96 165 3.0 5.0 0.00 0.05 0.05 38 1011.7
20260906011519 96 142 4.0 6.0 0.00 0.05 0.05 38 1011.7
20260906011039 96 138 4.0 6.0 0.00 0.05 0.05 38 1011.6
20260906010519 96 124 3.0 5.0 0.00 0.05 0.05 38 1011.6
20260906010019 96 120 3.0 5.0 0.00 0.05 0.05 37 1011.5
20260906005519 97 93 4.0 9.0 0.00 0.05 0.05 37 1011.5
20260906005019 97 136 5.0 8.0 0.00 0.05 0.04 37 1011.4
20260906004559 97 139 4.0 8.0 0.00 0.05 0.04 36 1011.4
20260906004016 97 133 5.0 9.0 0.00 0.05 0.04 36 1011.4
20260906003517 98 139 5.0 9.0 0.00 0.05 0.04 36 1011.4
20260906003019 98 133 4.0 8.0 0.00 0.05 0.04 35 1011.4
20260906002520 98 133 5.0 9.0 0.00 0.05 0.04 35 1011.3
20260906002039 98 131 5.0 10.0 0.00 0.05 0.04 35 1011.2
20260906001519 98 129 5.0 8.0 0.00 0.05 0.04 35 1011.3
20260906001019 99 122 5.0 8.0 0.00 0.05 0.04 34 1011.2
20260906000520 99 129 6.0 9.0 0.00 0.05 0.04 34 1011.2
20260906000019 99 146 7.0 9.0 0.00 0.05 0.04 34 1011.2
20260905235517 99 141 5.0 9.0 0.00 0.05 0.04 34 1011.2
20260905235017 99 148 6.0 9.0 0.00 0.05 0.04 34 1011.1
20260905234517 99 138 7.0 10.0 0.00 0.05 0.04 34 1011.1
20260905234017 99 106 5.0 9.0 0.00 0.05 0.04 34 1011.0
20260905233517 99 121 6.0 10.0 0.00 0.05 0.04 34 1010.9
20260905233020 99 124 6.0 8.0 0.00 0.05 0.04 34 1010.9
20260905232520 99 101 5.0 8.0 0.00 0.05 0.04 34 1010.9
20260905232020 99 88 6.0 10.0 0.00 0.05 0.04 35 1010.8
20260905231520 99 168 5.0 9.0 0.00 0.05 0.04 35 1010.9
20260905231017 99 173 5.0 9.0 0.00 0.05 0.04 35 1010.9
20260905230518 99 162 7.0 12.0 0.00 0.05 0.04 35 1010.9
20260905230017 99 149 6.0 10.0 0.00 0.05 0.04 34 1010.9
20260905225518 99 129 5.0 9.0 0.00 0.05 0.04 34 1010.8
20260905225018 99 117 5.0 9.0 0.00 0.05 0.04 34 1010.8
20260905224538 99 136 6.0 9.0 0.00 0.05 0.04 35 1010.8
20260905224037 99 166 7.0 14.0 0.00 0.05 0.04 35 1010.8
20260905223518 99 73 4.0 10.0 0.00 0.05 0.04 35 1010.8
20260905223021 99 205 3.0 7.0 0.00 0.05 0.04 34 1010.8
20260905222518 99 155 4.0 10.0 0.00 0.05 0.04 35 1010.9
20260905222038 99 205 8.0 14.0 0.00 0.05 0.04 35 1010.9
20260905221518 99 154 8.0 12.0 0.00 0.05 0.04 35 1010.8
20260905221018 99 188 6.0 11.0 0.00 0.05 0.04 35 1010.9
20260905220518 99 167 6.0 12.0 0.00 0.05 0.04 35 1011.0
20260905220038 99 193 6.0 10.0 0.00 0.05 0.04 34 1011.0
20260905215518 98 166 5.0 13.0 0.00 0.05 0.04 35 1011.0
20260905215038 99 165 6.0 10.0 0.00 0.05 0.04 35 1011.1
20260905214519 99 134 7.0 11.0 0.00 0.05 0.04 34 1011.2
20260905214018 99 203 5.0 9.0 0.00 0.05 0.04 34 1011.3
20260905213539 99 154 6.0 11.0 0.00 0.05 0.04 35 1011.3
20260905213018 99 154 6.0 11.0 0.00 0.05 0.04 34 1011.4
20260905212518 98 164 5.0 11.0 0.00 0.05 0.04 35 1011.4
20260905212039 99 172 6.0 10.0 0.00 0.05 0.04 34 1011.5
20260905211519 99 155 5.0 10.0 0.00 0.05 0.04 34 1011.5
20260905211019 99 154 7.0 13.0 0.00 0.05 0.04 34 1011.6
20260905210519 99 134 5.0 8.0 0.00 0.05 0.04 35 1011.6
20260905210019 98 141 5.0 10.0 0.00 0.05 0.04 36 1011.7
20260905205519 99 167 8.0 13.0 0.00 0.05 0.04 35 1011.8
20260905205019 99 181 9.0 14.0 0.00 0.05 0.04 35 1011.8
20260905204519 99 165 7.0 10.0 0.00 0.05 0.04 36 1011.9
20260905204016 99 175 6.0 11.0 0.00 0.05 0.04 36 1012.0
20260905203536 98 187 7.0 11.0 0.00 0.05 0.04 35 1012.1